Location: ??
(35.1714°N, 128.2806°E)
Time: 19:58:47
(UTC+00:00)

Tiangong - Pass Details

Date: 18 June 2021
Orbit: 373 x 385 km, 41.5° (Epoch: 04 August)

Event Time Altitude Azimuth Distance (km) Brightness Sun altitude
Exits shadow 18:31:28 32° 159° (SSE) 669 2.0 -17.1°
Maximum altitude 18:31:44 33° 148° (SSE) 660 2.1 -17.0°
Drops below altitude 10° 18:34:37 10° 81° (E) 1,398 4.7 -16.6°
Sets 18:36:48 0° 72° (ENE) 2,257 6.1 -16.3°
